Regional Weather Roundup
Issued by NWS Green Bay, WI

Home | Current Version | Previous Version | Text Only | Print | Product List | Glossary On
Versions: 1 2 3 4 5 6 7 8 9 10 11 12 13 14 15 16 17 18 19 20 21 22 23 24 25 26 27 28 29 30 31 32 33 34 35 36 37 38 39 40 41 42 43 44 45 46 47 48 49 50
000
ASUS43 KGRB 290459
RWRGRB

NORTH-CENTRAL AND NORTHEAST WISCONSIN REGIONAL WEATHER ROUNDUP
NATIONAL WEATHER SERVICE GREEN BAY WI
1200 AM CDT FRI AUG 29 2014

WIZ005-009-010>012-018-019-290600-
NORTH CENTRAL WISCONSIN

CITY           SKY/WX    TMP DP  RH WIND       PRES   REMARKS
IRONWOOD       NOT AVBL
MANITOWISH WTR NOT AVBL
ARBOR VITAE    NOT AVBL
EAGLE RIVER    NOT AVBL
LAND O LAKES   NOT AVBL
RHINELANDER    CLOUDY    60  55  83 S8        30.05F
PHILLIPS       NOT AVBL
ANTIGO         NOT AVBL
TOMAHAWK       NOT AVBL
MERRILL        NOT AVBL
$$

WIZ013-073-290600-
NORTHEAST WISCONSIN

CITY           SKY/WX    TMP DP  RH WIND       PRES   REMARKS
IRON MOUNTAIN  MOCLDY    59  55  87 SE7       30.05S
MARINETTE      CLOUDY    63  55  77 SE7       30.05F
$$

WIZ017-030-035>037-045-290600-
CENTRAL WISCONSIN

CITY           SKY/WX    TMP DP  RH WIND       PRES   REMARKS
MEDFORD        NOT AVBL
WAUSAU         LGT RAIN  61  58  90 SE5       30.03R
MOSINEE        NOT AVBL
MARSHFIELD     LGT RAIN  59  57  93 SE10      30.02F FOG
WISC RAPIDS    HVY RAIN  57  54  89 SE9G21    30.05R FOG
STEVENS POINT  NOT AVBL
WAUPACA        NOT AVBL
SHAWANO        DRIZZLE   63  57  82 CALM      30.05S
CLINTONVILLE   NOT AVBL
$$

WIZ038-039-048-051-290600-
FOX VALLEY

CITY           SKY/WX    TMP DP  RH WIND       PRES   REMARKS
NWS GREEN BAY  CLOUDY    63  57  81 SE5       30.05S
APPLETON       NOT AVBL
OSHKOSH        CLOUDY    64  56  75 SE6       30.03S
FOND DU LAC    CLOUDY    64  56  75 SE9       30.03F
$$

WIZ022-050-052-290600-
EAST CENTRAL WISCONSIN

CITY           SKY/WX    TMP DP  RH WIND       PRES   REMARKS
STURGEON BAY   MOCLDY    63  55  77 SE6       30.07S
MANITOWOC      NOT AVBL
SHEBOYGAN      CLOUDY    64  58  80 SE3       30.06S
$$

LMZ563-521-522-541>543-290600-
LAKESHORE

STATION/POSITION TIME  TEMP    WIND        PRES    VSBY  WAVE
                       AIR SEA DIR/SP/G                  HT/PER
                 (UTC) (F)     (DEG/KT/KT) (MB)    (MI)  (FT/S)
SHEBOYGAN LKSHOR 0400   66 69   90/ 13/ 13 1017.9F
KEWAUNEE LKSHORE 0400   65     120/  7/  9 1017.2F
NORTHPORT PIER   0400   65     130/ 12/ 13 1018.3F
N MID LAKE BUOY  0400   65 66  120/ 10/ 12 1018.6F         0
S GREEN BAY BUOY 0400   65     VRB 10/ 12  1018.8F
SISTER BAY LKSHO 0400   63     150/  8/  9   N/A
CHAMBERS ISLAND  0400   64     120/  5/  9 1018.3S
MENOMINEE LKSHOR 0400   65     120/  8/ 10 1018.5F
$$



USA.gov is the U.S. government's official web portal to all federal, state and local government web resources and services.